weather.gov     
National Weather Service

Terminal Aerodrome Forecast
NWS Homepage
This page is being discontinued on March 12, 2014.
The same data is available at this site. Please update your bookmarks.
Thank you, and we apologize for the inconvenience.
Please send an email to SR-SRH.Webmaster@noaa.gov with any concerns.


Current Version
Previous Version:    01  02  03  04  05  06  07  08  09  10  11  12  13  14  15  16  17  18  19  20  21  22  23  
[Printable]
816
FTUS45 KRIW 271100
TAFLND
TAF
KLND 271139Z 2712/2812 VRB05KT P6SM VCSH SCT070 OVC120
     FM271600 11005KT P6SM -SHRA SCT040 OVC070
     FM272100 VRB06KT P6SM VCTS SCT035 BKN045CB
     FM280100 VRB05KT P6SM VCSH SCT040 BKN060
     FM280300 VRB05KT P6SM SCT050 BKN080
     FM280700 VRB05KT P6SM SCT090=


U.S. Dept. of Commerce
NOAA National Weather Service
1325 East West Highway
Silver Spring, MD 20910
E-mail: w-nws.webmaster@noaa.gov
Page last modified: May 16, 2007
NATIONAL WEATHER SERVICE: for Safety, for Work, for Fun - FOR LIFE